Location: Jaboat�o
(8.1170°S, 35.0170°W)
Time: 19:30:40
(UTC-03:00)

BlueWalker 3 - Pass Details

Date: 25 June 2024
Orbit: 480 x 491 km, 53.2° (Epoch: 21 July)

Event Time Altitude Azimuth Distance (km) Brightness Sun altitude
Exits shadow 03:52:28 30° 140° (SE) 891 3.3 -23.9°
Drops below altitude 10° 03:54:30 10° 143° (SE) 1,673 4.7 -23.4°
Sets 03:56:40 0° 144° (SE) 2,560 5.7 -22.9°
